Location: DaVinci Observatory
(43.1080°N, 78.6453°W)
Time: 03:13:48
(UTC-04:00)

Tiangong 1 - Pass Details

Date: 09 October 2017
Orbit: 293 x 320 km, 42.8° (Epoch: 19 October)

Event Time Altitude Azimuth Distance (km) Brightness Sun altitude
Rises 19:08:53 0° 255° (WSW) 2,042 6.9 -5.8°
Reaches altitude 10° 19:10:52 10° 252° (WSW) 1,208 5.2 -6.2°
Maximum altitude 19:13:33 66° 170° (S) 343 0.8 -6.7°
Drops below altitude 10° 19:16:13 10° 86° (E) 1,194 2.9 -7.2°
Enters shadow 19:16:13 10° 86° (E) 1,195 2.9 -7.2°
